| time (UTC) | temp F | wind direction | speed MPH | gust MPH | rain 1hr in | rain 24hr in | rain mn in | humidity % | barometer mb |
| 20260508002104 | 60 | 156 | 1.0 | 4.0 | 0.00 | 0.00 | 0.00 | ||
| 20260508001558 | 60 | 242 | 0.0 | 3.0 | 0.00 | 0.00 | 0.00 | ||
| 20260508001053 | 59 | 159 | 0.0 | 3.0 | 0.00 | 0.00 | 0.00 | ||
| 20260508000549 | 59 | 174 | 2.0 | 0.0 | 0.00 | 0.00 | 0.00 | ||
| 20260508000044 | 60 | 236 | 0.0 | 0.0 | 0.00 | 0.00 | 0.00 | ||
| 20260507235536 | 60 | 236 | 0.0 | 0.0 | 0.00 | 0.00 | 0.00 | ||
| 20260507235032 | 60 | 236 | 0.0 | 0.0 | 0.00 | 0.00 | 0.00 | ||
| 20260507234527 | 61 | 236 | 0.0 | 2.0 | 0.00 | 0.00 | 0.00 | ||
| 20260507234022 | 62 | 236 | 0.0 | 4.0 | 0.00 | 0.00 | 0.00 | ||
| 20260507233517 | 62 | 274 | 4.0 | 4.0 | 0.00 | 0.00 | 0.00 | ||
| 20260507233013 | 63 | 269 | 2.0 | 4.0 | 0.00 | 0.00 | 0.00 | ||
| 20260507232505 | 62 | 285 | 2.0 | 4.0 | 0.00 | 0.00 | 0.00 | ||
| 20260507232000 | 64 | 262 | 2.0 | 3.0 | 0.00 | 0.00 | 0.00 | ||
| 20260507231455 | 64 | 248 | 2.0 | 4.0 | 0.00 | 0.00 | 0.00 | ||
| 20260507230951 | 64 | 236 | 3.0 | 4.0 | 0.00 | 0.00 | 0.00 | ||
| 20260507230446 | 63 | 225 | 3.0 | 4.0 | 0.00 | 0.00 | 0.00 | ||
| 20260507225941 | 65 | 200 | 2.0 | 4.0 | 0.00 | 0.00 | 0.00 | ||
| 20260507225433 | 64 | 228 | 2.0 | 4.0 | 0.00 | 0.00 | 0.00 | ||
| 20260507224423 | 66 | 150 | 0.0 | 5.0 | 0.00 | 0.00 | 0.00 | ||
| 20260507223919 | 66 | 204 | 1.0 | 6.0 | 0.00 | 0.00 | 0.00 | ||
| 20260507223414 | 68 | 262 | 3.0 | 5.0 | 0.00 | 0.00 | 0.00 | ||
| 20260507222909 | 70 | 274 | 0.0 | 5.0 | 0.00 | 0.00 | 0.00 | ||
| 20260507222402 | 71 | 330 | 3.0 | 10.0 | 0.00 | 0.00 | 0.00 | ||
| 20260507221857 | 71 | 328 | 1.0 | 8.0 | 0.00 | 0.00 | 0.00 | ||
| 20260507221352 | 70 | 271 | 5.0 | 4.0 | 0.00 | 0.00 | 0.00 | ||
| 20260507220848 | 71 | 197 | 2.0 | 3.0 | 0.00 | 0.00 | 0.00 | ||
| 20260507220342 | 72 | 212 | 0.0 | 5.0 | 0.00 | 0.00 | 0.00 | ||
| 20260507215837 | 70 | 257 | 2.0 | 3.0 | 0.00 | 0.00 | 0.00 | ||
| 20260507215330 | 69 | 208 | 2.0 | 7.0 | 0.00 | 0.00 | 0.00 | ||
| 20260507214825 | 71 | 264 | 5.0 | 7.0 | 0.00 | 0.00 | 0.00 | ||
| 20260507214321 | 74 | 44 | 4.0 | 3.0 | 0.00 | 0.00 | 0.00 | ||
| 20260507213816 | 73 | 330 | 0.0 | 5.0 | 0.00 | 0.00 | 0.00 | ||
| 20260507213311 | 73 | 231 | 0.0 | 6.0 | 0.00 | 0.00 | 0.00 | ||
| 20260507212804 | 73 | 53 | 1.0 | 5.0 | 0.00 | 0.00 | 0.00 | ||
| 20260507212257 | 72 | 27 | 1.0 | 6.0 | 0.00 | 0.00 | 0.00 | ||
| 20260507211752 | 72 | 21 | 2.0 | 6.0 | 0.00 | 0.00 | 0.00 | ||
| 20260507211248 | 73 | 350 | 2.0 | 6.0 | 0.00 | 0.00 | 0.00 | ||
| 20260507210743 | 70 | 208 | 4.0 | 7.0 | 0.00 | 0.00 | 0.00 | ||
| 20260507210238 | 73 | 180 | 4.0 | 5.0 | 0.00 | 0.00 | 0.00 | ||
| 20260507205734 | 74 | 79 | 1.0 | 4.0 | 0.00 | 0.00 | 0.00 | ||
| 20260507205226 | 73 | 305 | 0.0 | 9.0 | 0.00 | 0.00 | 0.00 | ||
| 20260507204721 | 74 | 69 | 0.0 | 4.0 | 0.00 | 0.00 | 0.00 | ||
| 20260507204217 | 71 | 307 | 3.0 | 0.0 | 0.00 | 0.00 | 0.00 | ||
| 20260507203712 | 73 | 10 | 0.0 | 7.0 | 0.00 | 0.00 | 0.00 | ||
| 20260507203208 | 73 | 66 | 3.0 | 9.0 | 0.00 | 0.00 | 0.00 | ||
| 20260507202703 | 75 | 15 | 3.0 | 6.0 | 0.00 | 0.00 | 0.00 | ||
| 20260507201651 | 73 | 322 | 3.0 | 8.0 | 0.00 | 0.00 | 0.00 | ||
| 20260507201146 | 73 | 66 | 3.0 | 4.0 | 0.00 | 0.00 | 0.00 | ||
| 20260507200641 | 74 | 30 | 2.0 | 7.0 | 0.00 | 0.00 | 0.00 | ||
| 20260507200137 | 75 | 308 | 2.0 | 7.0 | 0.00 | 0.00 | 0.00 | ||
| 20260507195632 | 75 | 66 | 1.0 | 8.0 | 0.00 | 0.00 | 0.00 | ||
| 20260507195124 | 73 | 6 | 2.0 | 9.0 | 0.00 | 0.00 | 0.00 | ||
| 20260507194620 | 72 | 35 | 3.0 | 8.0 | 0.00 | 0.00 | 0.00 | ||
| 20260507194115 | 73 | 14 | 1.0 | 10.0 | 0.00 | 0.00 | 0.00 | ||
| 20260507193610 | 73 | 291 | 4.0 | 5.0 | 0.00 | 0.00 | 0.00 | ||
| 20260507193105 | 76 | 255 | 4.0 | 9.0 | 0.00 | 0.00 | 0.00 | ||
| 20260507192601 | 74 | 49 | 1.0 | 8.0 | 0.00 | 0.00 | 0.00 | ||
| 20260507192053 | 73 | 325 | 1.0 | 6.0 | 0.00 | 0.00 | 0.00 | ||
| 20260507191548 | 73 | 55 | 1.0 | 5.0 | 0.00 | 0.00 | 0.00 | ||
| 20260507191044 | 72 | 300 | 3.0 | 8.0 | 0.00 | 0.00 | 0.00 | ||
| 20260507190539 | 71 | 298 | 5.0 | 8.0 | 0.00 | 0.00 | 0.00 | ||
| 20260507190034 | 73 | 285 | 5.0 | 6.0 | 0.00 | 0.00 | 0.00 | ||
| 20260507185530 | 71 | 330 | 3.0 | 10.0 | 0.00 | 0.00 | 0.00 | ||
| 20260507185022 | 73 | 291 | 6.0 | 6.0 | 0.00 | 0.00 | 0.00 | ||
| 20260507184517 | 72 | 287 | 5.0 | 9.0 | 0.00 | 0.00 | 0.00 | ||
| 20260507183508 | 67 | 176 | 3.0 | 11.0 | 0.00 | 0.00 | 0.00 | ||
| 20260507183003 | 68 | 269 | 8.0 | 12.0 | 0.00 | 0.00 | 0.00 | ||
| 20260507182458 | 70 | 301 | 2.0 | 8.0 | 0.00 | 0.00 | 0.00 | ||
| 20260507181950 | 69 | 231 | 4.0 | 6.0 | 0.00 | 0.00 | 0.00 | ||
| 20260507181445 | 69 | 236 | 4.0 | 8.0 | 0.00 | 0.00 | 0.00 | ||
| 20260507180941 | 67 | 288 | 2.0 | 12.0 | 0.00 | 0.00 | 0.00 | ||
| 20260507180436 | 67 | 256 | 7.0 | 15.0 | 0.00 | 0.00 | 0.00 | ||
| 20260507175931 | 68 | 284 | 9.0 | 14.0 | 0.00 | 0.00 | 0.00 | ||
| 20260507175427 | 70 | 284 | 9.0 | 5.0 | 0.00 | 0.00 | 0.00 | ||
| 20260507174919 | 70 | 332 | 1.0 | 9.0 | 0.00 | 0.00 | 0.00 | ||
| 20260507174415 | 71 | 276 | 6.0 | 7.0 | 0.00 | 0.00 | 0.00 | ||
| 20260507173910 | 71 | 285 | 4.0 | 15.0 | 0.00 | 0.00 | 0.00 | ||
| 20260507173405 | 70 | 297 | 3.0 | 8.0 | 0.00 | 0.00 | 0.00 | ||
| 20260507172356 | 69 | 235 | 7.0 | 10.0 | 0.00 | 0.00 | 0.00 | ||
| 20260507171848 | 68 | 301 | 4.0 | 13.0 | 0.00 | 0.00 | 0.00 | ||
| 20260507171344 | 68 | 285 | 7.0 | 11.0 | 0.00 | 0.00 | 0.00 | ||
| 20260507170839 | 68 | 277 | 5.0 | 14.0 | 0.00 | 0.00 | 0.00 | ||
| 20260507170334 | 66 | 274 | 8.0 | 15.0 | 0.00 | 0.00 | 0.00 | ||
| 20260507165829 | 67 | 280 | 9.0 | 13.0 | 0.00 | 0.00 | 0.00 | ||
| 20260507165325 | 67 | 321 | 5.0 | 9.0 | 0.00 | 0.00 | 0.00 | ||
| 20260507164817 | 66 | 345 | 1.0 | 12.0 | 0.00 | 0.00 | 0.00 | ||
| 20260507164312 | 66 | 89 | 1.0 | 14.0 | 0.00 | 0.00 | 0.00 | ||
| 20260507163302 | 67 | 263 | 6.0 | 17.0 | 0.00 | 0.00 | 0.00 | ||
| 20260507162757 | 65 | 10 | 5.0 | 21.0 | 0.00 | 0.00 | 0.00 | ||
| 20260507162252 | 66 | 284 | 10.0 | 13.0 | 0.00 | 0.00 | 0.00 | ||
| 20260507161745 | 68 | 290 | 10.0 | 13.0 | 0.00 | 0.00 | 0.00 | ||
| 20260507161240 | 66 | 280 | 9.0 | 13.0 | 0.00 | 0.00 | 0.00 | ||
| 20260507160736 | 69 | 283 | 7.0 | 9.0 | 0.00 | 0.00 | 0.00 | ||
| 20260507160231 | 68 | 290 | 6.0 | 11.0 | 0.00 | 0.00 | 0.00 | ||
| 20260507155222 | 68 | 83 | 0.0 | 7.0 | 0.00 | 0.00 | 0.00 | ||
| 20260507154713 | 66 | 39 | 3.0 | 10.0 | 0.00 | 0.00 | 0.00 | ||
| 20260507154208 | 66 | 280 | 6.0 | 8.0 | 0.00 | 0.00 | 0.00 | ||
| 20260507153703 | 66 | 290 | 2.0 | 7.0 | 0.00 | 0.00 | 0.00 | ||
| 20260507153159 | 68 | 1 | 1.0 | 10.0 | 0.00 | 0.00 | 0.00 | ||
| 20260507152653 | 66 | 359 | 2.0 | 8.0 | 0.00 | 0.00 | 0.00 | ||
| 20260507152148 | 64 | 285 | 5.0 | 10.0 | 0.00 | 0.00 | 0.00 | ||
| 20260507151641 | 65 | 267 | 9.0 | 6.0 | 0.00 | 0.00 | 0.00 | ||
| 20260507151136 | 65 | 321 | 3.0 | 8.0 | 0.00 | 0.00 | 0.00 | ||
| 20260507150631 | 64 | 315 | 5.0 | 14.0 | 0.00 | 0.00 | 0.00 | ||
| 20260507150126 | 65 | 339 | 4.0 | 9.0 | 0.00 | 0.00 | 0.00 | ||
| 20260507145621 | 64 | 18 | 3.0 | 7.0 | 0.00 | 0.00 | 0.00 | ||
| 20260507145117 | 64 | 288 | 1.0 | 10.0 | 0.00 | 0.00 | 0.00 | ||
| 20260507144609 | 61 | 212 | 2.0 | 6.0 | 0.00 | 0.00 | 0.00 | ||
| 20260507144104 | 62 | 274 | 3.0 | 14.0 | 0.00 | 0.00 | 0.00 | ||
| 20260507143559 | 62 | 28 | 1.0 | 9.0 | 0.00 | 0.00 | 0.00 | ||
| 20260507143055 | 62 | 347 | 3.0 | 5.0 | 0.00 | 0.00 | 0.00 | ||
| 20260507142550 | 62 | 332 | 1.0 | 7.0 | 0.00 | 0.00 | 0.00 | ||
| 20260507142045 | 61 | 314 | 3.0 | 8.0 | 0.00 | 0.00 | 0.00 | ||
| 20260507141538 | 61 | 11 | 1.0 | 8.0 | 0.00 | 0.00 | 0.00 | ||
| 20260507140528 | 60 | 24 | 1.0 | 8.0 | 0.00 | 0.00 | 0.00 | ||
| 20260507140024 | 59 | 302 | 2.0 | 7.0 | 0.00 | 0.00 | 0.00 | ||
| 20260507135519 | 57 | 281 | 3.0 | 4.0 | 0.00 | 0.00 | 0.00 | ||
| 20260507135013 | 57 | 274 | 2.0 | 6.0 | 0.00 | 0.00 | 0.00 | ||
| 20260507134505 | 57 | 221 | 5.0 | 7.0 | 0.00 | 0.00 | 0.00 | ||
| 20260507134001 | 56 | 281 | 1.0 | 6.0 | 0.00 | 0.00 | 0.00 | ||
| 20260507133456 | 56 | 285 | 4.0 | 6.0 | 0.00 | 0.00 | 0.00 | ||
| 20260507132951 | 55 | 325 | 1.0 | 8.0 | 0.00 | 0.00 | 0.00 | ||
| 20260507132446 | 56 | 284 | 5.0 | 8.0 | 0.00 | 0.00 | 0.00 | ||
| 20260507131942 | 55 | 274 | 6.0 | 9.0 | 0.00 | 0.00 | 0.00 | ||
| 20260507131434 | 55 | 294 | 4.0 | 7.0 | 0.00 | 0.00 | 0.00 | ||
| 20260507130929 | 55 | 273 | 6.0 | 7.0 | 0.00 | 0.00 | 0.00 | ||
| 20260507130424 | 54 | 305 | 5.0 | 8.0 | 0.00 | 0.00 | 0.00 | ||
| 20260507125919 | 54 | 295 | 5.0 | 9.0 | 0.00 | 0.00 | 0.00 | ||
| 20260507125415 | 54 | 262 | 6.0 | 9.0 | 0.00 | 0.00 | 0.00 | ||
| 20260507124910 | 55 | 276 | 3.0 | 6.0 | 0.00 | 0.00 | 0.00 | ||
| 20260507124402 | 54 | 300 | 2.0 | 4.0 | 0.00 | 0.00 | 0.00 | ||
| 20260507123857 | 54 | 329 | 1.0 | 4.0 | 0.00 | 0.00 | 0.00 | ||
| 20260507123353 | 54 | 354 | 0.0 | 4.0 | 0.00 | 0.00 | 0.00 | ||
| 20260507122848 | 54 | 3 | 0.0 | 5.0 | 0.00 | 0.00 | 0.00 | ||
| 20260507122343 | 53 | 298 | 0.0 | 3.0 | 0.00 | 0.00 | 0.00 | ||
| 20260507121838 | 54 | 266 | 0.0 | 3.0 | 0.00 | 0.00 | 0.00 | ||
| 20260507121330 | 54 | 318 | 2.0 | 1.0 | 0.00 | 0.00 | 0.00 | ||
| 20260507120826 | 52 | 335 | 0.0 | 1.0 | 0.00 | 0.00 | 0.00 | ||
| 20260507120321 | 53 | 232 | 0.0 | 3.0 | 0.00 | 0.00 | 0.00 | ||
| 20260507115815 | 53 | 41 | 0.0 | 3.0 | 0.00 | 0.00 | 0.00 | ||
| 20260507115310 | 53 | 326 | 1.0 | 3.0 | 0.00 | 0.00 | 0.00 | ||
| 20260507114805 | 53 | 326 | 2.0 | 2.0 | 0.00 | 0.00 | 0.00 | ||
| 20260507114258 | 52 | 353 | 0.0 | 4.0 | 0.00 | 0.00 | 0.00 | ||
| 20260507113753 | 51 | 42 | 0.0 | 1.0 | 0.00 | 0.00 | 0.00 | ||
| 20260507113248 | 52 | 312 | 0.0 | 0.0 | 0.00 | 0.00 | 0.00 | ||
| 20260507112743 | 52 | 312 | 0.0 | 1.0 | 0.00 | 0.00 | 0.00 | ||
| 20260507112238 | 50 | 294 | 0.0 | 4.0 | 0.00 | 0.00 | 0.00 | ||
| 20260507111735 | 52 | 41 | 0.0 | 4.0 | 0.00 | 0.00 | 0.00 | ||
| 20260507111226 | 52 | 340 | 0.0 | 2.0 | 0.00 | 0.00 | 0.00 | ||
| 20260507110721 | 52 | 311 | 1.0 | 3.0 | 0.00 | 0.00 | 0.00 | ||
| 20260507110216 | 52 | 326 | 0.0 | 2.0 | 0.00 | 0.00 | 0.00 | ||
| 20260507105711 | 53 | 342 | 0.0 | 2.0 | 0.00 | 0.00 | 0.00 | ||
| 20260507105206 | 52 | 346 | 0.0 | 4.0 | 0.00 | 0.00 | 0.00 | ||
| 20260507104701 | 51 | 256 | 3.0 | 2.0 | 0.00 | 0.00 | 0.00 | ||
| 20260507104153 | 52 | 18 | 0.0 | 0.0 | 0.00 | 0.00 | 0.00 | ||
| 20260507103648 | 52 | 18 | 0.0 | 0.0 | 0.00 | 0.00 | 0.00 | ||
| 20260507103144 | 53 | 18 | 0.0 | 2.0 | 0.00 | 0.00 | 0.00 | ||
| 20260507102639 | 52 | 253 | 0.0 | 0.0 | 0.00 | 0.00 | 0.00 | ||
| 20260507102134 | 53 | 253 | 0.0 | 2.0 | 0.00 | 0.00 | 0.00 | ||
| 20260507101629 | 52 | 253 | 0.0 | 0.0 | 0.00 | 0.00 | 0.00 | ||
| 20260507101121 | 52 | 342 | 0.0 | 0.0 | 0.00 | 0.00 | 0.00 | ||
| 20260507100616 | 53 | 342 | 0.0 | 0.0 | 0.00 | 0.00 | 0.00 | ||
| 20260507095606 | 52 | 342 | 0.0 | 1.0 | 0.00 | 0.00 | 0.00 | ||
| 20260507095101 | 52 | 342 | 0.0 | 2.0 | 0.00 | 0.00 | 0.00 | ||
| 20260507094555 | 52 | 42 | 0.0 | 1.0 | 0.00 | 0.00 | 0.00 | ||
| 20260507094047 | 52 | 274 | 0.0 | 2.0 | 0.00 | 0.00 | 0.00 | ||
| 20260507093542 | 52 | 214 | 0.0 | 5.0 | 0.00 | 0.00 | 0.00 | ||
| 20260507093037 | 53 | 28 | 0.0 | 5.0 | 0.00 | 0.00 | 0.00 | ||
| 20260507092532 | 54 | 356 | 0.0 | 5.0 | 0.00 | 0.00 | 0.00 | ||
| 20260507092027 | 53 | 349 | 1.0 | 6.0 | 0.00 | 0.00 | 0.00 | ||
| 20260507091522 | 54 | 326 | 0.0 | 5.0 | 0.00 | 0.00 | 0.00 | ||
| 20260507091015 | 53 | 309 | 0.0 | 5.0 | 0.00 | 0.00 | 0.00 | ||
| 20260507090510 | 53 | 308 | 0.0 | 1.0 | 0.00 | 0.00 | 0.00 | ||
| 20260507090006 | 52 | 353 | 0.0 | 2.0 | 0.00 | 0.00 | 0.00 | ||
| 20260507085500 | 53 | 307 | 0.0 | 3.0 | 0.00 | 0.00 | 0.00 | ||
| 20260507084955 | 53 | 75 | 0.0 | 0.0 | 0.00 | 0.00 | 0.00 | ||
| 20260507084450 | 54 | 75 | 0.0 | 0.0 | 0.00 | 0.00 | 0.00 | ||
| 20260507083943 | 54 | 75 | 0.0 | 0.0 | 0.00 | 0.00 | 0.00 | ||
| 20260507083438 | 53 | 75 | 0.0 | 0.0 | 0.00 | 0.00 | 0.00 | ||
| 20260507082933 | 53 | 75 | 0.0 | 0.0 | 0.00 | 0.00 | 0.00 | ||
| 20260507082428 | 53 | 75 | 0.0 | 0.0 | 0.00 | 0.00 | 0.00 | ||
| 20260507081923 | 54 | 75 | 0.0 | 2.0 | 0.00 | 0.00 | 0.00 | ||
| 20260507081418 | 55 | 75 | 0.0 | 2.0 | 0.00 | 0.00 | 0.00 | ||
| 20260507080911 | 54 | 354 | 0.0 | 1.0 | 0.00 | 0.00 | 0.00 | ||
| 20260507080406 | 55 | 308 | 0.0 | 3.0 | 0.00 | 0.00 | 0.00 | ||
| 20260507075901 | 54 | 24 | 0.0 | 3.0 | 0.00 | 0.00 | 0.00 | ||
| 20260507075356 | 54 | 45 | 0.0 | 4.0 | 0.00 | 0.00 | 0.00 | ||
| 20260507074851 | 54 | 46 | 1.0 | 4.0 | 0.00 | 0.00 | 0.00 | ||
| 20260507074346 | 54 | 7 | 0.0 | 6.0 | 0.00 | 0.00 | 0.00 | ||
| 20260507073838 | 53 | 18 | 0.0 | 5.0 | 0.00 | 0.00 | 0.00 | ||
| 20260507073333 | 54 | 13 | 0.0 | 2.0 | 0.00 | 0.00 | 0.00 | ||
| 20260507072828 | 55 | 307 | 2.0 | 2.0 | 0.00 | 0.00 | 0.00 | ||
| 20260507072324 | 55 | 58 | 0.0 | 2.0 | 0.00 | 0.00 | 0.00 | ||
| 20260507071314 | 54 | 34 | 0.0 | 4.0 | 0.00 | 0.00 | 0.00 | ||
| 20260507070301 | 54 | 77 | 0.0 | 3.0 | 0.00 | 0.00 | 0.00 | ||
| 20260507065756 | 54 | 42 | 2.0 | 6.0 | 0.00 | 0.00 | 0.00 | ||
| 20260507065252 | 55 | 41 | 1.0 | 8.0 | 0.00 | 0.00 | 0.00 | ||
| 20260507064747 | 54 | 329 | 2.0 | 7.0 | 0.00 | 0.00 | 0.00 | ||
| 20260507064242 | 55 | 293 | 3.0 | 7.0 | 0.00 | 0.00 | 0.00 | ||
| 20260507063734 | 54 | 7 | 1.0 | 11.0 | 0.00 | 0.00 | 0.00 | ||
| 20260507062725 | 55 | 325 | 1.0 | 6.0 | 0.00 | 0.00 | 0.00 | ||
| 20260507062219 | 55 | 290 | 2.0 | 5.0 | 0.00 | 0.00 | 0.00 | ||
| 20260507061714 | 55 | 46 | 0.0 | 3.0 | 0.00 | 0.00 | 0.00 | ||
| 20260507061209 | 55 | 305 | 0.0 | 0.0 | 0.00 | 0.00 | 0.00 | ||
| 20260507060701 | 55 | 305 | 0.0 | 2.0 | 0.00 | 0.00 | 0.00 | ||
| 20260507060156 | 56 | 21 | 1.0 | 4.0 | 0.00 | 0.00 | 0.00 | ||
| 20260507055652 | 55 | 336 | 1.0 | 3.0 | 0.00 | 0.00 | 0.00 | ||
| 20260507055147 | 56 | 284 | 0.0 | 4.0 | 0.00 | 0.00 | 0.00 | ||
| 20260507054642 | 55 | 319 | 1.0 | 3.0 | 0.00 | 0.00 | 0.00 | ||
| 20260507054136 | 55 | 14 | 0.0 | 2.0 | 0.00 | 0.00 | 0.00 | ||
| 20260507053627 | 55 | 23 | 0.0 | 0.0 | 0.00 | 0.00 | 0.00 | ||
| 20260507053122 | 56 | 23 | 0.0 | 2.0 | 0.00 | 0.00 | 0.00 | ||
| 20260507052617 | 56 | 23 | 0.0 | 5.0 | 0.00 | 0.00 | 0.00 | ||
| 20260507052112 | 55 | 38 | 0.0 | 4.0 | 0.00 | 0.00 | 0.00 | ||
| 20260507051607 | 55 | 42 | 0.0 | 3.0 | 0.00 | 0.00 | 0.00 | ||
| 20260507051102 | 55 | 20 | 2.0 | 3.0 | 0.00 | 0.00 | 0.00 | ||
| 20260507050554 | 55 | 238 | 0.0 | 4.0 | 0.00 | 0.00 | 0.00 | ||
| 20260507050049 | 56 | 3 | 1.0 | 5.0 | 0.00 | 0.00 | 0.00 | ||
| 20260507045544 | 57 | 263 | 2.0 | 6.0 | 0.00 | 0.00 | 0.00 | ||
| 20260507045039 | 57 | 325 | 4.0 | 5.0 | 0.00 | 0.00 | 0.00 | ||
| 20260507044534 | 55 | 6 | 2.0 | 2.0 | 0.00 | 0.00 | 0.00 | ||
| 20260507044030 | 56 | 8 | 0.0 | 2.0 | 0.00 | 0.00 | 0.00 | ||
| 20260507043522 | 55 | 30 | 0.0 | 4.0 | 0.00 | 0.00 | 0.00 | ||
| 20260507043017 | 56 | 41 | 0.0 | 5.0 | 0.00 | 0.00 | 0.00 | ||
| 20260507042639 | 56 | 319 | 2.0 | 8.0 | 0.00 | 0.00 | 0.00 | ||
| 20260507042512 | 56 | 319 | 2.0 | 8.0 | 0.00 | 0.00 | 0.00 | ||
| 20260507042007 | 57 | 6 | 0.0 | 9.0 | 0.00 | 0.00 | 0.00 | ||
| 20260507041502 | 56 | 27 | 0.0 | 8.0 | 0.00 | 0.00 | 0.00 | ||
| 20260507040957 | 56 | 48 | 1.0 | 11.0 | 0.00 | 0.00 | 0.00 | ||
| 20260507040450 | 57 | 52 | 0.0 | 9.0 | 0.00 | 0.00 | 0.00 | ||
| 20260507035945 | 58 | 20 | 1.0 | 8.0 | 0.00 | 0.00 | 0.00 | ||
| 20260507035440 | 57 | 302 | 2.0 | 6.0 | 0.00 | 0.00 | 0.00 | ||
| 20260507034935 | 57 | 25 | 2.0 | 5.0 | 0.00 | 0.00 | 0.00 | ||
| 20260507034430 | 58 | 49 | 1.0 | 7.0 | 0.00 | 0.00 | 0.00 | ||
| 20260507033925 | 57 | 350 | 1.0 | 6.0 | 0.00 | 0.00 | 0.00 | ||
| 20260507033418 | 58 | 308 | 1.0 | 9.0 | 0.00 | 0.00 | 0.00 | ||
| 20260507032913 | 57 | 323 | 5.0 | 8.0 | 0.00 | 0.00 | 0.00 | ||
| 20260507032408 | 58 | 288 | 3.0 | 9.0 | 0.00 | 0.00 | 0.00 | ||
| 20260507031903 | 57 | 252 | 3.0 | 11.0 | 0.00 | 0.00 | 0.00 | ||
| 20260507031358 | 57 | 342 | 3.0 | 10.0 | 0.00 | 0.00 | 0.00 | ||
| 20260507030854 | 58 | 326 | 6.0 | 7.0 | 0.00 | 0.00 | 0.00 | ||
| 20260507030346 | 58 | 300 | 1.0 | 7.0 | 0.00 | 0.00 | 0.00 | ||
| 20260507025841 | 58 | 17 | 0.0 | 7.0 | 0.00 | 0.00 | 0.00 | ||
| 20260507025336 | 58 | 329 | 4.0 | 6.0 | 0.00 | 0.00 | 0.00 | ||
| 20260507024831 | 57 | 333 | 1.0 | 7.0 | 0.00 | 0.00 | 0.00 | ||
| 20260507024327 | 59 | 314 | 1.0 | 10.0 | 0.00 | 0.00 | 0.00 | ||
| 20260507023822 | 58 | 307 | 2.0 | 7.0 | 0.00 | 0.00 | 0.00 | ||
| 20260507023313 | 59 | 25 | 0.0 | 9.0 | 0.00 | 0.00 | 0.00 | ||
| 20260507022808 | 60 | 300 | 4.0 | 7.0 | 0.00 | 0.00 | 0.00 | ||
| 20260507022306 | 59 | 330 | 1.0 | 5.0 | 0.00 | 0.00 | 0.00 | ||
| 20260507021759 | 59 | 307 | 1.0 | 4.0 | 0.00 | 0.00 | 0.00 | ||
| 20260507021254 | 58 | 21 | 0.0 | 4.0 | 0.00 | 0.00 | 0.00 | ||
| 20260507020749 | 59 | 18 | 2.0 | 0.0 | 0.00 | 0.00 | 0.00 | ||
| 20260507020242 | 59 | 34 | 0.0 | 0.0 | 0.00 | 0.00 | 0.00 | ||
| 20260507015737 | 60 | 34 | 0.0 | 1.0 | 0.00 | 0.00 | 0.00 | ||
| 20260507015232 | 59 | 34 | 0.0 | 1.0 | 0.00 | 0.00 | 0.00 | ||
| 20260507014727 | 60 | 253 | 0.0 | 5.0 | 0.00 | 0.00 | 0.00 | ||
| 20260507014223 | 59 | 290 | 3.0 | 2.0 | 0.00 | 0.00 | 0.00 | ||
| 20260507013718 | 60 | 311 | 0.0 | 2.0 | 0.00 | 0.00 | 0.00 | ||
| 20260507013210 | 61 | 46 | 0.0 | 0.0 | 0.00 | 0.00 | 0.00 | ||
| 20260507012706 | 61 | 46 | 0.0 | 3.0 | 0.00 | 0.00 | 0.00 | ||
| 20260507012201 | 60 | 44 | 0.0 | 3.0 | 0.00 | 0.00 | 0.00 | ||
| 20260507011656 | 61 | 46 | 0.0 | 1.0 | 0.00 | 0.00 | 0.00 | ||
| 20260507011151 | 60 | 42 | 0.0 | 8.0 | 0.00 | 0.00 | 0.00 | ||
| 20260507010646 | 60 | 284 | 0.0 | 8.0 | 0.00 | 0.00 | 0.00 | ||
| 20260507010139 | 62 | 253 | 1.0 | 5.0 | 0.00 | 0.00 | 0.00 | ||
| 20260507005634 | 62 | 336 | 3.0 | 13.0 | 0.00 | 0.00 | 0.00 | ||
| 20260507005129 | 62 | 172 | 4.0 | 17.0 | 0.00 | 0.00 | 0.00 | ||
| 20260507004624 | 62 | 269 | 6.0 | 11.0 | 0.00 | 0.00 | 0.00 | ||
| 20260507004119 | 62 | 315 | 5.0 | 11.0 | 0.00 | 0.00 | 0.00 | ||
| 20260507003615 | 62 | 23 | 5.0 | 23.0 | 0.00 | 0.00 | 0.00 | ||
| 20260507003107 | 63 | 342 | 7.0 | 17.0 | 0.00 | 0.00 | 0.00 | ||
| 20260507002602 | 63 | 290 | 8.0 | 13.0 | 0.00 | 0.00 | 0.00 |